Tracking 28125 objects as of 4-Oct-2023
HD Live streaming from Space Station
objects crossing your sky now

GALAXY 25 (TELSTAR 5)

Track GALAXY 25 (TELSTAR 5) now!
GALAXY 25 (TELSTAR 5) is classified as:


NORAD ID: 24812
Int'l Code: 1997-026A
Perigee: 36,109.6 km
Apogee: 36,178.5 km
Inclination: 4.9 °
Period: 1,454.0 minutes
Semi major axis: 42515 km
RCS: 43.2964 m2 (large)
Launch date: May 24, 1997
Source: United States (US)
Launch site: TYURATAM MISSILE AND SPACE COMPLEX (TTMTR)

24 C-band, 28 Ku-band; U.S., southern Canada, Mexico, Caribbean.
Your satellite tracking list
Your tracking list is empty




NASA's NSSDC Master Catalog

Two Line Element Set (TLE):
1 24812U 97026A   23276.62639010 -.00000219  00000-0  00000-0 0  9991
2 24812   4.8784  78.8139 0008105  61.3510 268.2860  0.99035160 96433
Source of the keplerian elements: AFSPC